Starlink 35499

operational
NORAD ID: 66462 Int'l Des: 2025-262 Owner: SPXS Country: US Constellation: starlink
NOTLE

About Starlink 35499

Description loading...

Live Position

Loading 3D Globe...

Upcoming Passes

Altitude History

Altitude vs Time

uPlot chart will show altitude changes over time

Two-Line Element Set

1 66462U 25262G 26019.55905454 .00043616 00000-0 10448-2 0 9995
2 66462 42.9991 213.5393 0001393 265.6913 94.3784 15.40717161 11396
Epoch: Jan 19, 2026 • Age: 7 hours

Current Status

Altitude 444.8 km
Velocity 7.65 km/s
Sub-Earth Point -7.59°S, 26.22°W
Launch Date Nov 15, 2025
Age 0.1 years
Type internet

Technical Details

Classification Payload
Mass 575.00 kg
Dry Mass 530.00 kg
Total Mass 575.00 kg
Length 0.30 m
Diameter 4.10 m
Span 29.00 m
Shape Box + pan
Manufacturer SPXS
Bus Type Starlink V2MO
Phase Status In Orbit
Owner/State SPXS/US

Large Constellations

Loading constellations...